Volver al catálogo

SL-12 DEB

LostUNKNOWN
NORAD 28679·DEBRIS·🇷🇺 Russia

Lanzado Jul 30, 1992 desde Baikonur Cosmodrome

Loading…

Próximos Pases (próximas 24 horas)

TLE

ObsoletoSource: Space-Track

Época: Mar 28, 2006, 13:58 UTC

1 28679U 92047AC  06087.58224374 -.00000019 +00000-0 +00000-0 0  9991
2 28679 061.8870 071.7479 2457636 142.3780 237.4219 08.01411551042759

Sigue SL-12 DEB en tiempo real con AllMySat

Download on the App Store